sat.trackr.live / text

‹ back to catalog

TIANHUI 2-01B

NORAD 44209 · 2019-024C

PAYLOAD ACTIVE UNKNOWN

§ Identity

Operator
Country
PRC
Launch date
2019-04-29
Launch site
TAISC
Launch vehicle
Mass (kg)
RCS (m²)

External: N2YO · Heavens-Above · Gunter

§ Orbital elements

Epoch: 2026-05-24T11:24:43.250112Z

Period
94.94 min
Inclination
97.4800°
Eccentricity
0.0001953
Mean motion
15.16745462 rev/d
Perigee alt
514.3 km
Apogee alt
517.0 km
Semi-major
6,893.8 km
B*
6.8771e-5
RAAN
148.7251°
Arg perigee
98.8805°
Mean anomaly
261.2650°
Rev number
39,111

§ Raw data

TIANHUI 2-01B1 44209U 19024C   26144.47550058  .00001282  00000+0  68771-4 0  99912 44209  97.4800 148.7251 0001953  98.8805 261.2650 15.16745462391111

JSON: /api/v1/satellites/44209 · /tle

For live sub-satellite position, see the globe view (requires WebGL).

§ Visibility from observer

Set your observer location to see the next 7 days of passes ≥ 10°. The values pass through the URL so the page stays shareable.

No JS? Fill the form by hand. The geolocation button needs JavaScript.